Вернуться в каталог

STARLINK-2135

АктивенСвязьVLEO
NORAD 47408·PAYLOAD·🇺🇸 United States

Запущен Jan 20, 2021 с Cape Canaveral Space Force Station

Loading…

Ближайшие Пролёты (ближайшие 24 часа)

TLE

СвежийSource: CelesTrak SupGP

Эпоха: Sep 15, 2026, 01:49 UTC

1 47408C 21005BM  26258.07618056  .00015024  00000+0  44502-3 0  2584
2 47408  53.1592 235.4806 0003966  67.9970   1.0942 15.34295630    15

Отслеживайте STARLINK-2135 в реальном времени с AllMySat

Download on the App Store